Weather in Owings Mills

United States     39°25′08″N   76°46′48″W
temp.,
°C
wind,
m/s
gust,
m/s
humid.,
%
clouds,
%
prec.,
mm/h
press.,
hPa
HPBL,
m
28 june, tue
tue2823:00+19nnw513570 0.0 1019471
02:00+17nnw513585 0.0 1020444
05:00+14nnw39622 0.0 1020198
08:00+18nnw37620 0.0 1022290
11:00+22nnw354516 0.0 10231511
14:00+24nnw3343100 0.0 10221578
17:00+24nw334420 0.0 10221567
20:00+21ese115940 0.0 102211
29 june, wed
wed2923:00+18sse1164100 0.0 102313
02:00+17sw1267100 0.0 102320
05:00+16sw126727 0.0 102315
08:00+20ssw24620 0.0 1024215
11:00+26ssw46430 0.0 10231008
14:00+28wsw56424 0.0 10221770
17:00+29wnw34430 0.0 10211492
20:00+25e22610 0.0 102169
30 june, thu
thu3023:00+20s11760 0.1 102215
02:00+19nnw22795 0.1 102327
05:00+18nnw37640 0.0 1022109
08:00+21n23620 0.0 1024178
11:00+27nnw22480 0.0 1023964
14:00+30wnw34380 0.0 10221701
17:00+30w34380 0.0 10201646
20:00+26ese23530 0.0 102089
1 july, fri
fri123:00+23sse23542 0.0 102164
02:00+21sse236590 0.0 102055
05:00+20s22780 0.0 101927
08:00+23wsw35730 0.0 1019238
11:00+30wsw34480 0.0 1018754
14:00+34wsw463535 0.0 10162459
17:00+33w573836 0.0 10151971
20:00+27sse125928 0.1 101552
2 july, sat
sat223:00+24ssw41175100 0.6 1016262
02:00+22sw258697 0.9 101591
05:00+21wsw1190100 1.4 101512
08:00+23wsw0182100 1.5 1016136
11:00+29nnw115575 0.0 1016875
14:00+25nnw4583100 1.0 1017366
17:00+22ne1194100 2.0 101690
20:00+22se129346 2.1 1017171